Weather History for KDDC - December, 2012

Change the Weather History Date:

Sunday, December 9, 2012

  Actual Average Record
Temperature  
Mean Temperature 25 °F -  
Max Temperature 37 °F 46 °F 75 °F (1939)
Min Temperature 12 °F 22 °F -10 °F (1919)
Degree Days  
Heating Degree Days 40    
Moisture  
Dew Point 14 °F    
Average Humidity 57    
Maximum Humidity 100    
Minimum Humidity 22    
Precipitation  
Precipitation 0.00 in - - ()
Sea Level Pressure  
Sea Level Pressure 30.06 in    
Wind  
Wind Speed 14 mph (NNW)    
Max Wind Speed 30 mph    
Max Gust Speed 38 mph    
Visibility 7 miles    
Events Fog    
Averages and records for this station are not official NWS values.
T = Trace of Precipitation, MM = Missing Value Source: NWS Daily Summary

Daily Weather History Graph

Daily Weather History Graph

Search for Another Location

Airport or City:

Trip Planner

Search our weather history database for the weather conditions in past years. The results will help you decide how hot, cold, wet, or windy it might be!

Date:

Astronomy

Dec. 09, 2012 Rise Set
Actual Time 7:43 AM CST 5:20 PM CST
Civil Twilight 7:14 AM CST 5:50 PM CST
Nautical Twilight 6:41 AM CST 6:23 PM CST
Astronomical Twilight 6:10 AM CST 6:54 PM CST
Moon 3:22 AM CST (12/9) 2:26 PM CST (12/9)
Length of Visible Light 10h 35m
Length of Day
9h 37m
Waning Crescent, 18% of the Moon is Illuminated
Dec 9
Waning Crescent
Dec 13
New
Dec 19
First Quarter
Dec 28
Full
Jan 4
Last Quarter

Hourly Weather History & Observations

Time (CST) Temp. Windchill Dew Point Humidity Pressure Visibility Wind Dir Wind Speed Gust Speed Precip Events Conditions
12:34 AM 35.6 °F 30.7 °F 33.8 °F 93% 29.85 in 0.2 mi NW 5.8 mph - N/A Fog Fog
12:52 AM 35.1 °F 32.2 °F 34.0 °F 96% 29.86 in 0.2 mi NW 3.5 mph - N/A Fog Fog
1:52 AM 35.1 °F 27.9 °F 34.0 °F 96% 29.87 in 0.2 mi NNW 9.2 mph - N/A Fog Fog
2:07 AM 35.6 °F 28.6 °F 33.8 °F 93% 29.85 in 0.5 mi NNW 9.2 mph - N/A Fog Fog
2:42 AM 35.6 °F 27.5 °F 33.8 °F 93% 29.86 in 0.2 mi NNW 11.5 mph - N/A Fog Fog
2:49 AM 35.6 °F 27.5 °F 33.8 °F 93% 29.87 in 0.5 mi NNW 11.5 mph - N/A Fog Fog
2:52 AM 34.0 °F 26.0 °F 33.1 °F 96% 29.89 in 0.5 mi NNW 10.4 mph - N/A Fog Fog
3:05 AM 33.8 °F 27.0 °F 32.0 °F 93% 29.87 in 1.5 mi NNW 8.1 mph - N/A   Overcast
3:16 AM 32.0 °F 24.8 °F 30.2 °F 93% 29.88 in 3.0 mi NNW 8.1 mph - N/A   Mostly Cloudy
3:24 AM 30.2 °F 23.4 °F 30.2 °F 100% 29.88 in 5.0 mi NNW 6.9 mph - N/A   Scattered Clouds
3:52 AM 28.9 °F 21.9 °F 26.1 °F 89% 29.92 in 7.0 mi NNW 6.9 mph - N/A   Clear
4:52 AM 30.0 °F 21.1 °F 21.9 °F 72% 29.94 in 10.0 mi NNW 10.4 mph - N/A   Mostly Cloudy
5:52 AM 33.1 °F 21.9 °F 18.0 °F 54% 29.97 in 10.0 mi North 18.4 mph 24.2 mph N/A   Overcast
6:52 AM 33.1 °F 21.5 °F 9.0 °F 37% 29.99 in 10.0 mi North 19.6 mph 36.8 mph N/A   Overcast
7:52 AM 32.0 °F 19.5 °F 7.0 °F 35% 30.02 in 10.0 mi NNW 21.9 mph 31.1 mph N/A   Overcast
8:52 AM 30.0 °F 15.4 °F 6.1 °F 36% 30.05 in 10.0 mi NNW 27.6 mph 35.7 mph N/A   Overcast
9:52 AM 28.0 °F 13.0 °F 6.1 °F 39% 30.09 in 10.0 mi NNW 26.5 mph 38.0 mph N/A   Overcast
10:52 AM 27.0 °F 10.8 °F 6.1 °F 41% 30.12 in 10.0 mi North 29.9 mph 35.7 mph N/A   Overcast
11:52 AM 26.6 °F 11.4 °F 6.8 °F 43% 30.08 in 10.0 mi North 25.3 mph 38.0 mph N/A   Overcast
12:52 PM 27.0 °F 12.2 °F 6.1 °F 41% 30.12 in 10.0 mi NNW 24.2 mph 32.2 mph N/A   Overcast
1:52 PM 27.0 °F 12.5 °F 6.1 °F 41% 30.13 in 10.0 mi NNW 23.0 mph 31.1 mph N/A   Overcast
2:52 PM 28.0 °F 15.3 °F 5.0 °F 38% 30.12 in 10.0 mi NNW 18.4 mph 33.4 mph N/A   Overcast
3:52 PM 27.0 °F 13.5 °F 5.0 °F 39% 30.16 in 10.0 mi NNW 19.6 mph 33.4 mph N/A   Overcast
4:52 PM 27.0 °F 12.5 °F 5.0 °F 39% 30.16 in 10.0 mi NNW 23.0 mph 31.1 mph N/A   Overcast
5:52 PM 25.0 °F 10.6 °F 3.9 °F 41% 30.18 in 10.0 mi North 20.7 mph 31.1 mph N/A   Overcast
6:52 PM 24.1 °F 8.3 °F 3.0 °F 40% 30.22 in 10.0 mi North 24.2 mph 29.9 mph N/A   Mostly Cloudy
7:52 PM 21.9 °F 6.5 °F 3.0 °F 44% 30.26 in 10.0 mi North 20.7 mph 29.9 mph N/A   Mostly Cloudy
8:52 PM 19.9 °F 4.3 °F 3.0 °F 48% 30.29 in 10.0 mi North 19.6 mph 27.6 mph N/A   Partly Cloudy
9:52 PM 18.0 °F 2.2 °F 1.9 °F 50% 30.28 in 10.0 mi NNW 18.4 mph 32.2 mph N/A   Clear
10:52 PM 16.0 °F 0.1 °F -0.0 °F 49% 30.28 in 10.0 mi NNW 17.3 mph 32.2 mph N/A   Clear
11:52 PM 12.9 °F -2.2 °F -2.0 °F 51% 30.29 in 10.0 mi NNW 13.8 mph 20.7 mph N/A   Clear